owner,sensor,date,latitude,longitude,air_pressure(mBar),qcFlag 
TABS,ioos:station:wmo:42046:1,2010-02-01T00:00:00Z,27.8903,-94.0367,1022.25,11111222 
TABS,ioos:station:wmo:42046:1,2010-02-01T00:30:00Z,27.8903,-94.0367,1022.04,11111222 
TABS,ioos:station:wmo:42046:1,2010-02-01T01:00:00Z,27.8903,-94.0367,1022.04,11111222 
TABS,ioos:station:wmo:42046:1,2010-02-01T01:30:00Z,27.8903,-94.0367,1021.97,11111222 
TABS,ioos:station:wmo:42046:1,2010-02-01T02:00:00Z,27.8903,-94.0367,1022.12,11111222 
TABS,ioos:station:wmo:42046:1,2010-02-01T02:30:00Z,27.8903,-94.0367,1022.14,11111222 
TABS,ioos:station:wmo:42046:1,2010-02-01T03:00:00Z,27.8903,-94.0367,1022.2,11111222 
TABS,ioos:station:wmo:42046:1,2010-02-01T03:30:00Z,27.8903,-94.0367,1021.71,11111222 
TABS,ioos:station:wmo:42046:1,2010-02-01T04:00:00Z,27.8903,-94.0367,1022.12,11111222 
TABS,ioos:station:wmo:42046:1,2010-02-01T04:30:00Z,27.8903,-94.0367,1021.69,11111222 
TABS,ioos:station:wmo:42046:1,2010-02-01T05:00:00Z,27.8903,-94.0367,1022.34,11111222 
TABS,ioos:station:wmo:42046:1,2010-02-01T05:30:00Z,27.8903,-94.0367,1022.14,11111222 
TABS,ioos:station:wmo:42046:1,2010-02-01T06:00:00Z,27.8903,-94.0367,1021.93,11111222 
TABS,ioos:station:wmo:42046:1,2010-02-01T06:30:00Z,27.8903,-94.0367,1021.82,11111222 
TABS,ioos:station:wmo:42046:1,2010-02-01T07:00:00Z,27.8903,-94.0367,1021.19,11111222 
TABS,ioos:station:wmo:42046:1,2010-02-01T07:30:00Z,27.8903,-94.0367,1020.68,11111222 
TABS,ioos:station:wmo:42046:1,2010-02-01T08:00:00Z,27.8903,-94.0367,1020.43,11111222 
TABS,ioos:station:wmo:42046:1,2010-02-01T08:30:00Z,27.8903,-94.0367,1019.83,11111222 
TABS,ioos:station:wmo:42046:1,2010-02-01T09:00:00Z,27.8903,-94.0367,1019.41,11111222 
TABS,ioos:station:wmo:42046:1,2010-02-01T09:30:00Z,27.8903,-94.0367,1019.39,11111222 
TABS,ioos:station:wmo:42046:1,2010-02-01T10:00:00Z,27.8903,-94.0367,1019.65,11111222 
TABS,ioos:station:wmo:42046:1,2010-02-01T10:30:00Z,27.8903,-94.0367,1019.35,11111222 
TABS,ioos:station:wmo:42046:1,2010-02-01T11:00:00Z,27.8903,-94.0367,1019.08,11111222 
TABS,ioos:station:wmo:42046:1,2010-02-01T11:30:00Z,27.8903,-94.0367,1018.89,11111222 
TABS,ioos:station:wmo:42046:1,2010-02-01T12:00:00Z,27.8903,-94.0367,1018.94,11111222 
TABS,ioos:station:wmo:42046:1,2010-02-01T12:30:00Z,27.8903,-94.0367,1019.14,11111222 
TABS,ioos:station:wmo:42046:1,2010-02-01T13:00:00Z,27.8903,-94.0367,1018.99,11111222 
TABS,ioos:station:wmo:42046:1,2010-02-01T13:30:00Z,27.8903,-94.0367,1019.02,11111222 
TABS,ioos:station:wmo:42046:1,2010-02-01T14:00:00Z,27.8903,-94.0367,1018.92,11111222 
TABS,ioos:station:wmo:42046:1,2010-02-01T14:30:00Z,27.8903,-94.0367,1018.4,11111222 
TABS,ioos:station:wmo:42046:1,2010-02-01T15:00:00Z,27.8903,-94.0367,1019.86,11111222 
TABS,ioos:station:wmo:42046:1,2010-02-01T15:30:00Z,27.8903,-94.0367,1020.12,11111222 
TABS,ioos:station:wmo:42046:1,2010-02-01T16:00:00Z,27.8903,-94.0367,1019.98,11111222 
TABS,ioos:station:wmo:42046:1,2010-02-01T16:30:00Z,27.8903,-94.0367,1020.04,11111222 
TABS,ioos:station:wmo:42046:1,2010-02-01T17:00:00Z,27.8903,-94.0367,1019.51,11111222 
TABS,ioos:station:wmo:42046:1,2010-02-01T17:30:00Z,27.8903,-94.0367,1019.0,11111222 
TABS,ioos:station:wmo:42046:1,2010-02-01T18:00:00Z,27.8903,-94.0367,1018.31,11111222 
TABS,ioos:station:wmo:42046:1,2010-02-01T18:30:00Z,27.8903,-94.0367,1017.96,11111222 
TABS,ioos:station:wmo:42046:1,2010-02-01T19:00:00Z,27.8903,-94.0367,1017.97,11111222 
TABS,ioos:station:wmo:42046:1,2010-02-01T19:30:00Z,27.8903,-94.0367,1017.33,11111222 
TABS,ioos:station:wmo:42046:1,2010-02-01T20:00:00Z,27.8903,-94.0367,1016.67,11111222 
TABS,ioos:station:wmo:42046:1,2010-02-01T20:30:00Z,27.8903,-94.0367,1017.01,11111222 
TABS,ioos:station:wmo:42046:1,2010-02-01T21:00:00Z,27.8903,-94.0367,1016.49,11111222 
TABS,ioos:station:wmo:42046:1,2010-02-01T21:30:00Z,27.8903,-94.0367,1016.37,11111222 
TABS,ioos:station:wmo:42046:1,2010-02-01T22:00:00Z,27.8903,-94.0367,1016.54,11111222 
TABS,ioos:station:wmo:42046:1,2010-02-01T22:30:00Z,27.8903,-94.0367,1016.68,11111222 
TABS,ioos:station:wmo:42046:1,2010-02-01T23:00:00Z,27.8903,-94.0367,1016.37,11111222 
TABS,ioos:station:wmo:42046:1,2010-02-01T23:30:00Z,27.8903,-94.0367,1016.47,11111222 
TABS,ioos:station:wmo:42046:1,2010-02-02T00:00:00Z,27.8903,-94.0367,1016.79,11111222 
TABS,ioos:station:wmo:42046:1,2010-02-02T00:30:00Z,27.8903,-94.0367,1017.02,11111222 
TABS,ioos:station:wmo:42046:1,2010-02-02T01:00:00Z,27.8903,-94.0367,1017.05,11111222 
TABS,ioos:station:wmo:42046:1,2010-02-02T01:30:00Z,27.8903,-94.0367,1017.0,11111222 
TABS,ioos:station:wmo:42046:1,2010-02-02T02:00:00Z,27.8903,-94.0367,1016.61,11111222 
TABS,ioos:station:wmo:42046:1,2010-02-02T02:30:00Z,27.8903,-94.0367,1016.82,11111222 
TABS,ioos:station:wmo:42046:1,2010-02-02T03:00:00Z,27.8903,-94.0367,1017.02,11111222 
TABS,ioos:station:wmo:42046:1,2010-02-02T03:30:00Z,27.8903,-94.0367,1016.83,11111222 
TABS,ioos:station:wmo:42046:1,2010-02-02T04:00:00Z,27.8903,-94.0367,1016.86,11111222 
TABS,ioos:station:wmo:42046:1,2010-02-02T04:30:00Z,27.8903,-94.0367,1016.53,11111222 
TABS,ioos:station:wmo:42046:1,2010-02-02T05:00:00Z,27.8903,-94.0367,1016.52,11111222 
TABS,ioos:station:wmo:42046:1,2010-02-02T05:30:00Z,27.8903,-94.0367,1016.82,11111222 
TABS,ioos:station:wmo:42046:1,2010-02-02T06:00:00Z,27.8903,-94.0367,1016.71,11111222 
TABS,ioos:station:wmo:42046:1,2010-02-02T06:30:00Z,27.8903,-94.0367,1016.81,11111222 
TABS,ioos:station:wmo:42046:1,2010-02-02T07:00:00Z,27.8903,-94.0367,1016.84,11111222 
TABS,ioos:station:wmo:42046:1,2010-02-02T07:30:00Z,27.8903,-94.0367,1016.91,11111222 
TABS,ioos:station:wmo:42046:1,2010-02-02T08:00:00Z,27.8903,-94.0367,1016.62,11111222 
TABS,ioos:station:wmo:42046:1,2010-02-02T08:30:00Z,27.8903,-94.0367,1016.59,11111222 
TABS,ioos:station:wmo:42046:1,2010-02-02T09:00:00Z,27.8903,-94.0367,1016.48,11111222 
TABS,ioos:station:wmo:42046:1,2010-02-02T09:30:00Z,27.8903,-94.0367,1016.76,11111222 
TABS,ioos:station:wmo:42046:1,2010-02-02T10:00:00Z,27.8903,-94.0367,1016.54,11111222 
TABS,ioos:station:wmo:42046:1,2010-02-02T10:30:00Z,27.8903,-94.0367,1016.85,11111222 
TABS,ioos:station:wmo:42046:1,2010-02-02T11:00:00Z,27.8903,-94.0367,1017.13,11111222 
TABS,ioos:station:wmo:42046:1,2010-02-02T11:30:00Z,27.8903,-94.0367,1016.87,11111222 
TABS,ioos:station:wmo:42046:1,2010-02-02T12:00:00Z,27.8903,-94.0367,1016.72,11111222 
TABS,ioos:station:wmo:42046:1,2010-02-02T12:30:00Z,27.8903,-94.0367,1017.3,11111222 
TABS,ioos:station:wmo:42046:1,2010-02-02T13:00:00Z,27.8903,-94.0367,1017.76,11111222 
TABS,ioos:station:wmo:42046:1,2010-02-02T13:30:00Z,27.8903,-94.0367,1018.21,11111222 
TABS,ioos:station:wmo:42046:1,2010-02-02T14:00:00Z,27.8903,-94.0367,1018.43,11111222 
TABS,ioos:station:wmo:42046:1,2010-02-02T14:30:00Z,27.8903,-94.0367,1018.71,11111222 
TABS,ioos:station:wmo:42046:1,2010-02-02T15:00:00Z,27.8903,-94.0367,1019.17,11111222 
TABS,ioos:station:wmo:42046:1,2010-02-02T15:30:00Z,27.8903,-94.0367,1020.03,11111222 
TABS,ioos:station:wmo:42046:1,2010-02-02T16:00:00Z,27.8903,-94.0367,1019.85,11111222 
TABS,ioos:station:wmo:42046:1,2010-02-02T16:30:00Z,27.8903,-94.0367,1019.54,11111222 
TABS,ioos:station:wmo:42046:1,2010-02-02T17:00:00Z,27.8903,-94.0367,1019.72,11111222 
TABS,ioos:station:wmo:42046:1,2010-02-02T17:30:00Z,27.8903,-94.0367,1019.48,11111222 
TABS,ioos:station:wmo:42046:1,2010-02-02T18:00:00Z,27.8903,-94.0367,1019.59,11111222 
TABS,ioos:station:wmo:42046:1,2010-02-02T18:30:00Z,27.8903,-94.0367,1018.99,11111222 
TABS,ioos:station:wmo:42046:1,2010-02-02T19:00:00Z,27.8903,-94.0367,1018.38,11111222 
TABS,ioos:station:wmo:42046:1,2010-02-02T19:30:00Z,27.8903,-94.0367,1018.0,11111222 
TABS,ioos:station:wmo:42046:1,2010-02-02T20:00:00Z,27.8903,-94.0367,1017.61,11111222 
TABS,ioos:station:wmo:42046:1,2010-02-02T20:30:00Z,27.8903,-94.0367,1017.84,11111222 
TABS,ioos:station:wmo:42046:1,2010-02-02T21:00:00Z,27.8903,-94.0367,1018.11,11111222 
TABS,ioos:station:wmo:42046:1,2010-02-02T21:30:00Z,27.8903,-94.0367,1017.95,11111222 
TABS,ioos:station:wmo:42046:1,2010-02-02T22:00:00Z,27.8903,-94.0367,1018.57,11111222 
TABS,ioos:station:wmo:42046:1,2010-02-02T22:30:00Z,27.8903,-94.0367,1018.89,11111222 
TABS,ioos:station:wmo:42046:1,2010-02-02T23:00:00Z,27.8903,-94.0367,1019.17,11111222 
TABS,ioos:station:wmo:42046:1,2010-02-02T23:30:00Z,27.8903,-94.0367,1019.83,11111222 
TABS,ioos:station:wmo:42046:1,2010-02-03T00:00:00Z,27.8903,-94.0367,1020.44,11111222 
TABS,ioos:station:wmo:42046:1,2010-02-03T00:30:00Z,27.8903,-94.0367,1020.46,11111222 
TABS,ioos:station:wmo:42046:1,2010-02-03T01:00:00Z,27.8903,-94.0367,1020.34,11111222 
TABS,ioos:station:wmo:42046:1,2010-02-03T01:30:00Z,27.8903,-94.0367,1020.22,11111222 
TABS,ioos:station:wmo:42046:1,2010-02-03T02:00:00Z,27.8903,-94.0367,1020.2,11111222 
TABS,ioos:station:wmo:42046:1,2010-02-03T02:30:00Z,27.8903,-94.0367,1020.42,11111222 
TABS,ioos:station:wmo:42046:1,2010-02-03T03:00:00Z,27.8903,-94.0367,1020.47,11111222 
TABS,ioos:station:wmo:42046:1,2010-02-03T03:30:00Z,27.8903,-94.0367,1020.21,11111222 
TABS,ioos:station:wmo:42046:1,2010-02-03T04:00:00Z,27.8903,-94.0367,1020.24,11111222 
TABS,ioos:station:wmo:42046:1,2010-02-03T04:30:00Z,27.8903,-94.0367,1020.24,11111222 
TABS,ioos:station:wmo:42046:1,2010-02-03T05:00:00Z,27.8903,-94.0367,1020.03,11111222 
TABS,ioos:station:wmo:42046:1,2010-02-03T05:30:00Z,27.8903,-94.0367,1019.45,11111222 
TABS,ioos:station:wmo:42046:1,2010-02-03T06:00:00Z,27.8903,-94.0367,1019.75,11111222 
TABS,ioos:station:wmo:42046:1,2010-02-03T06:30:00Z,27.8903,-94.0367,1019.82,11111222 
TABS,ioos:station:wmo:42046:1,2010-02-03T07:00:00Z,27.8903,-94.0367,1019.4,11111222 
TABS,ioos:station:wmo:42046:1,2010-02-03T07:30:00Z,27.8903,-94.0367,1019.49,11111222 
TABS,ioos:station:wmo:42046:1,2010-02-03T08:00:00Z,27.8903,-94.0367,1018.62,11111222 
TABS,ioos:station:wmo:42046:1,2010-02-03T08:30:00Z,27.8903,-94.0367,1017.89,11111222 
TABS,ioos:station:wmo:42046:1,2010-02-03T09:00:00Z,27.8903,-94.0367,1016.97,11111222 
TABS,ioos:station:wmo:42046:1,2010-02-03T09:30:00Z,27.8903,-94.0367,1017.63,11111222 
TABS,ioos:station:wmo:42046:1,2010-02-03T10:00:00Z,27.8903,-94.0367,1017.34,11111222 
TABS,ioos:station:wmo:42046:1,2010-02-03T10:30:00Z,27.8903,-94.0367,1017.33,11111222 
TABS,ioos:station:wmo:42046:1,2010-02-03T11:00:00Z,27.8903,-94.0367,1017.62,11111222 
TABS,ioos:station:wmo:42046:1,2010-02-03T11:30:00Z,27.8903,-94.0367,1017.32,11111222 
TABS,ioos:station:wmo:42046:1,2010-02-03T12:00:00Z,27.8903,-94.0367,1017.28,11111222 
TABS,ioos:station:wmo:42046:1,2010-02-03T12:30:00Z,27.8903,-94.0367,1017.49,11111222 
TABS,ioos:station:wmo:42046:1,2010-02-03T13:00:00Z,27.8903,-94.0367,1018.09,11111222 
TABS,ioos:station:wmo:42046:1,2010-02-03T13:30:00Z,27.8903,-94.0367,1017.69,11111222 
TABS,ioos:station:wmo:42046:1,2010-02-03T14:00:00Z,27.8903,-94.0367,1017.51,11111222 
TABS,ioos:station:wmo:42046:1,2010-02-03T14:30:00Z,27.8903,-94.0367,1016.69,11111222 
TABS,ioos:station:wmo:42046:1,2010-02-03T15:00:00Z,27.8903,-94.0367,1016.62,11111222 
TABS,ioos:station:wmo:42046:1,2010-02-03T15:30:00Z,27.8903,-94.0367,1017.17,11111222 
TABS,ioos:station:wmo:42046:1,2010-02-03T16:00:00Z,27.8903,-94.0367,1016.19,11111222 
TABS,ioos:station:wmo:42046:1,2010-02-03T16:30:00Z,27.8903,-94.0367,1015.79,11111222 
TABS,ioos:station:wmo:42046:1,2010-02-03T17:00:00Z,27.8903,-94.0367,1016.18,11111222 
TABS,ioos:station:wmo:42046:1,2010-02-03T17:30:00Z,27.8903,-94.0367,1016.38,11111222 
TABS,ioos:station:wmo:42046:1,2010-02-03T18:00:00Z,27.8903,-94.0367,1016.04,11111222 
TABS,ioos:station:wmo:42046:1,2010-02-03T18:30:00Z,27.8903,-94.0367,1016.11,11111222 
TABS,ioos:station:wmo:42046:1,2010-02-03T19:00:00Z,27.8903,-94.0367,1014.87,11111222 
TABS,ioos:station:wmo:42046:1,2010-02-03T19:30:00Z,27.8903,-94.0367,1014.75,11111222 
TABS,ioos:station:wmo:42046:1,2010-02-03T20:00:00Z,27.8903,-94.0367,1014.07,11111222 
TABS,ioos:station:wmo:42046:1,2010-02-03T20:30:00Z,27.8903,-94.0367,1014.01,11111222 
TABS,ioos:station:wmo:42046:1,2010-02-03T21:00:00Z,27.8903,-94.0367,1013.74,11111222 
TABS,ioos:station:wmo:42046:1,2010-02-03T21:30:00Z,27.8903,-94.0367,1013.59,11111222 
TABS,ioos:station:wmo:42046:1,2010-02-03T22:00:00Z,27.8903,-94.0367,1013.36,11111222 
TABS,ioos:station:wmo:42046:1,2010-02-03T22:30:00Z,27.8903,-94.0367,1011.91,11111222 
TABS,ioos:station:wmo:42046:1,2010-02-03T23:00:00Z,27.8903,-94.0367,1012.71,11111222 
TABS,ioos:station:wmo:42046:1,2010-02-03T23:30:00Z,27.8903,-94.0367,1013.4,11111222 
TABS,ioos:station:wmo:42046:1,2010-02-04T00:00:00Z,27.8903,-94.0367,1012.63,11111222 
TABS,ioos:station:wmo:42046:1,2010-02-04T00:30:00Z,27.8903,-94.0367,1012.38,11111222 
TABS,ioos:station:wmo:42046:1,2010-02-04T01:00:00Z,27.8903,-94.0367,1012.58,11111222 
TABS,ioos:station:wmo:42046:1,2010-02-04T01:30:00Z,27.8903,-94.0367,1012.37,11111222 
TABS,ioos:station:wmo:42046:1,2010-02-04T02:00:00Z,27.8903,-94.0367,1012.15,11111222 
TABS,ioos:station:wmo:42046:1,2010-02-04T02:30:00Z,27.8903,-94.0367,1011.72,11111222 
TABS,ioos:station:wmo:42046:1,2010-02-04T03:00:00Z,27.8903,-94.0367,1012.11,11111222 
TABS,ioos:station:wmo:42046:1,2010-02-04T03:30:00Z,27.8903,-94.0367,1010.89,11111222 
TABS,ioos:station:wmo:42046:1,2010-02-04T04:00:00Z,27.8903,-94.0367,1011.61,11111222 
TABS,ioos:station:wmo:42046:1,2010-02-04T04:30:00Z,27.8903,-94.0367,1011.44,11111222 
TABS,ioos:station:wmo:42046:1,2010-02-04T05:00:00Z,27.8903,-94.0367,1011.12,11111222 
TABS,ioos:station:wmo:42046:1,2010-02-04T05:30:00Z,27.8903,-94.0367,1010.67,11111222 
TABS,ioos:station:wmo:42046:1,2010-02-04T06:00:00Z,27.8903,-94.0367,1011.14,11111222 
TABS,ioos:station:wmo:42046:1,2010-02-04T06:30:00Z,27.8903,-94.0367,1010.3,11111222 
TABS,ioos:station:wmo:42046:1,2010-02-04T07:00:00Z,27.8903,-94.0367,1009.64,11111222 
TABS,ioos:station:wmo:42046:1,2010-02-04T07:30:00Z,27.8903,-94.0367,1008.79,11111222 
TABS,ioos:station:wmo:42046:1,2010-02-04T08:00:00Z,27.8903,-94.0367,1008.73,11111222 
TABS,ioos:station:wmo:42046:1,2010-02-04T08:30:00Z,27.8903,-94.0367,1008.6,11111222 
TABS,ioos:station:wmo:42046:1,2010-02-04T09:00:00Z,27.8903,-94.0367,1008.65,11111222 
TABS,ioos:station:wmo:42046:1,2010-02-04T09:30:00Z,27.8903,-94.0367,1008.59,11111222 
TABS,ioos:station:wmo:42046:1,2010-02-04T10:00:00Z,27.8903,-94.0367,1008.68,11111222 
TABS,ioos:station:wmo:42046:1,2010-02-04T10:30:00Z,27.8903,-94.0367,1008.5,11111222 
TABS,ioos:station:wmo:42046:1,2010-02-04T11:00:00Z,27.8903,-94.0367,1008.72,11111222 
TABS,ioos:station:wmo:42046:1,2010-02-04T11:30:00Z,27.8903,-94.0367,1009.27,11111222 
TABS,ioos:station:wmo:42046:1,2010-02-04T12:00:00Z,27.8903,-94.0367,1008.95,11111222 
TABS,ioos:station:wmo:42046:1,2010-02-04T12:30:00Z,27.8903,-94.0367,1008.82,11111222 
TABS,ioos:station:wmo:42046:1,2010-02-04T13:00:00Z,27.8903,-94.0367,1009.26,11111222 
TABS,ioos:station:wmo:42046:1,2010-02-04T13:30:00Z,27.8903,-94.0367,1009.09,11111222 
TABS,ioos:station:wmo:42046:1,2010-02-04T14:00:00Z,27.8903,-94.0367,1009.9,11111222 
TABS,ioos:station:wmo:42046:1,2010-02-04T14:30:00Z,27.8903,-94.0367,1010.41,11111222 
TABS,ioos:station:wmo:42046:1,2010-02-04T15:00:00Z,27.8903,-94.0367,1009.29,11111222 
TABS,ioos:station:wmo:42046:1,2010-02-04T15:30:00Z,27.8903,-94.0367,1011.08,11111222 
TABS,ioos:station:wmo:42046:1,2010-02-04T16:00:00Z,27.8903,-94.0367,1010.19,11111222 
TABS,ioos:station:wmo:42046:1,2010-02-04T16:30:00Z,27.8903,-94.0367,1010.43,11111222 
TABS,ioos:station:wmo:42046:1,2010-02-04T17:00:00Z,27.8903,-94.0367,1011.04,11111222 
TABS,ioos:station:wmo:42046:1,2010-02-04T17:30:00Z,27.8903,-94.0367,1008.66,11111222 
TABS,ioos:station:wmo:42046:1,2010-02-04T18:00:00Z,27.8903,-94.0367,1009.77,11111222 
TABS,ioos:station:wmo:42046:1,2010-02-04T18:30:00Z,27.8903,-94.0367,1010.26,11111222 
TABS,ioos:station:wmo:42046:1,2010-02-04T19:00:00Z,27.8903,-94.0367,1010.71,11111222 
TABS,ioos:station:wmo:42046:1,2010-02-04T19:30:00Z,27.8903,-94.0367,1009.13,11111222 
TABS,ioos:station:wmo:42046:1,2010-02-04T20:00:00Z,27.8903,-94.0367,1008.21,11111222 
TABS,ioos:station:wmo:42046:1,2010-02-04T20:30:00Z,27.8903,-94.0367,1007.86,11111222 
TABS,ioos:station:wmo:42046:1,2010-02-04T21:00:00Z,27.8903,-94.0367,1008.35,11111222 
TABS,ioos:station:wmo:42046:1,2010-02-04T21:30:00Z,27.8903,-94.0367,1007.48,11111222 
TABS,ioos:station:wmo:42046:1,2010-02-04T22:00:00Z,27.8903,-94.0367,1008.83,11111222 
TABS,ioos:station:wmo:42046:1,2010-02-04T22:30:00Z,27.8903,-94.0367,1009.26,11111222 
TABS,ioos:station:wmo:42046:1,2010-02-04T23:00:00Z,27.8903,-94.0367,1007.89,11111222 
TABS,ioos:station:wmo:42046:1,2010-02-04T23:30:00Z,27.8903,-94.0367,1008.44,11111222 
TABS,ioos:station:wmo:42046:1,2010-02-05T00:00:00Z,27.8903,-94.0367,1008.31,11111222 
TABS,ioos:station:wmo:42046:1,2010-02-05T00:30:00Z,27.8903,-94.0367,1008.71,11111222 
TABS,ioos:station:wmo:42046:1,2010-02-05T01:00:00Z,27.8903,-94.0367,1006.87,11111222 
TABS,ioos:station:wmo:42046:1,2010-02-05T01:30:00Z,27.8903,-94.0367,1007.5,11111222 
TABS,ioos:station:wmo:42046:1,2010-02-05T02:00:00Z,27.8903,-94.0367,1008.07,11111222 
TABS,ioos:station:wmo:42046:1,2010-02-05T02:30:00Z,27.8903,-94.0367,1009.86,11111222 
TABS,ioos:station:wmo:42046:1,2010-02-05T03:00:00Z,27.8903,-94.0367,1008.95,11111222 
TABS,ioos:station:wmo:42046:1,2010-02-05T03:30:00Z,27.8903,-94.0367,1009.58,11111222 
TABS,ioos:station:wmo:42046:1,2010-02-05T04:00:00Z,27.8903,-94.0367,1009.86,11111222 
TABS,ioos:station:wmo:42046:1,2010-02-05T04:30:00Z,27.8903,-94.0367,1009.74,11111222 
TABS,ioos:station:wmo:42046:1,2010-02-05T05:00:00Z,27.8903,-94.0367,1009.85,11111222 
TABS,ioos:station:wmo:42046:1,2010-02-05T05:30:00Z,27.8903,-94.0367,1010.08,11111222 
TABS,ioos:station:wmo:42046:1,2010-02-05T06:00:00Z,27.8903,-94.0367,1009.99,11111222 
TABS,ioos:station:wmo:42046:1,2010-02-05T06:30:00Z,27.8903,-94.0367,1009.91,11111222 
TABS,ioos:station:wmo:42046:1,2010-02-05T07:00:00Z,27.8903,-94.0367,1010.15,11111222 
TABS,ioos:station:wmo:42046:1,2010-02-05T07:30:00Z,27.8903,-94.0367,1010.24,11111222 
TABS,ioos:station:wmo:42046:1,2010-02-05T08:00:00Z,27.8903,-94.0367,1009.63,11111222 
TABS,ioos:station:wmo:42046:1,2010-02-05T08:30:00Z,27.8903,-94.0367,1010.26,11111222 
TABS,ioos:station:wmo:42046:1,2010-02-05T09:00:00Z,27.8903,-94.0367,1010.21,11111222 
TABS,ioos:station:wmo:42046:1,2010-02-05T09:30:00Z,27.8903,-94.0367,1010.19,11111222 
TABS,ioos:station:wmo:42046:1,2010-02-05T10:00:00Z,27.8903,-94.0367,1010.07,11111222 
TABS,ioos:station:wmo:42046:1,2010-02-05T10:30:00Z,27.8903,-94.0367,1010.08,11111222 
TABS,ioos:station:wmo:42046:1,2010-02-05T11:00:00Z,27.8903,-94.0367,1010.31,11111222 
TABS,ioos:station:wmo:42046:1,2010-02-05T11:30:00Z,27.8903,-94.0367,1010.84,11111222 
TABS,ioos:station:wmo:42046:1,2010-02-05T12:00:00Z,27.8903,-94.0367,1010.57,11111222 
TABS,ioos:station:wmo:42046:1,2010-02-05T12:30:00Z,27.8903,-94.0367,1011.09,11111222 
TABS,ioos:station:wmo:42046:1,2010-02-05T13:00:00Z,27.8903,-94.0367,1011.15,11111222 
TABS,ioos:station:wmo:42046:1,2010-02-05T13:30:00Z,27.8903,-94.0367,1011.54,11111222 
TABS,ioos:station:wmo:42046:1,2010-02-05T14:00:00Z,27.8903,-94.0367,1012.53,11111222 
TABS,ioos:station:wmo:42046:1,2010-02-05T14:30:00Z,27.8903,-94.0367,1013.25,11111222 
TABS,ioos:station:wmo:42046:1,2010-02-05T15:00:00Z,27.8903,-94.0367,1013.37,11111222 
TABS,ioos:station:wmo:42046:1,2010-02-05T15:30:00Z,27.8903,-94.0367,1013.74,11111222 
TABS,ioos:station:wmo:42046:1,2010-02-05T16:00:00Z,27.8903,-94.0367,1014.34,11111222 
TABS,ioos:station:wmo:42046:1,2010-02-05T16:30:00Z,27.8903,-94.0367,1014.36,11111222 
TABS,ioos:station:wmo:42046:1,2010-02-05T17:00:00Z,27.8903,-94.0367,1014.49,11111222 
TABS,ioos:station:wmo:42046:1,2010-02-05T17:30:00Z,27.8903,-94.0367,1014.39,11111222 
TABS,ioos:station:wmo:42046:1,2010-02-05T18:00:00Z,27.8903,-94.0367,1014.14,11111222 
TABS,ioos:station:wmo:42046:1,2010-02-05T18:30:00Z,27.8903,-94.0367,1013.5,11111222 
TABS,ioos:station:wmo:42046:1,2010-02-05T19:00:00Z,27.8903,-94.0367,1013.45,11111222 
TABS,ioos:station:wmo:42046:1,2010-02-05T19:30:00Z,27.8903,-94.0367,1013.34,11111222 
TABS,ioos:station:wmo:42046:1,2010-02-05T20:00:00Z,27.8903,-94.0367,1013.24,11111222 
TABS,ioos:station:wmo:42046:1,2010-02-05T20:30:00Z,27.8903,-94.0367,1013.33,11111222 
TABS,ioos:station:wmo:42046:1,2010-02-05T21:00:00Z,27.8903,-94.0367,1012.82,11111222 
TABS,ioos:station:wmo:42046:1,2010-02-05T21:30:00Z,27.8903,-94.0367,1012.79,11111222 
TABS,ioos:station:wmo:42046:1,2010-02-05T22:00:00Z,27.8903,-94.0367,1012.74,11111222 
TABS,ioos:station:wmo:42046:1,2010-02-05T22:30:00Z,27.8903,-94.0367,1012.93,11111222 
TABS,ioos:station:wmo:42046:1,2010-02-05T23:00:00Z,27.8903,-94.0367,1013.23,11111222 
TABS,ioos:station:wmo:42046:1,2010-02-05T23:30:00Z,27.8903,-94.0367,1013.36,11111222 
TABS,ioos:station:wmo:42046:1,2010-02-06T00:00:00Z,27.8903,-94.0367,1013.25,11111222 
TABS,ioos:station:wmo:42046:1,2010-02-06T00:30:00Z,27.8903,-94.0367,1013.64,11111222 
TABS,ioos:station:wmo:42046:1,2010-02-06T01:00:00Z,27.8903,-94.0367,1013.91,11111222 
TABS,ioos:station:wmo:42046:1,2010-02-06T01:30:00Z,27.8903,-94.0367,1014.26,11111222 
TABS,ioos:station:wmo:42046:1,2010-02-06T02:00:00Z,27.8903,-94.0367,1014.8,11111222 
TABS,ioos:station:wmo:42046:1,2010-02-06T02:30:00Z,27.8903,-94.0367,1015.03,11111222 
TABS,ioos:station:wmo:42046:1,2010-02-06T03:00:00Z,27.8903,-94.0367,1015.35,11111222 
TABS,ioos:station:wmo:42046:1,2010-02-06T03:30:00Z,27.8903,-94.0367,1015.59,11111222 
TABS,ioos:station:wmo:42046:1,2010-02-06T04:00:00Z,27.8903,-94.0367,1015.82,11111222 
TABS,ioos:station:wmo:42046:1,2010-02-06T04:30:00Z,27.8903,-94.0367,1016.09,11111222 
TABS,ioos:station:wmo:42046:1,2010-02-06T05:00:00Z,27.8903,-94.0367,1016.36,11111222 
TABS,ioos:station:wmo:42046:1,2010-02-06T05:30:00Z,27.8903,-94.0367,1016.47,11111222 
TABS,ioos:station:wmo:42046:1,2010-02-06T06:00:00Z,27.8903,-94.0367,1016.54,11111222 
TABS,ioos:station:wmo:42046:1,2010-02-06T06:30:00Z,27.8903,-94.0367,1016.46,11111222 
TABS,ioos:station:wmo:42046:1,2010-02-06T07:00:00Z,27.8903,-94.0367,1016.39,11111222 
TABS,ioos:station:wmo:42046:1,2010-02-06T07:30:00Z,27.8903,-94.0367,1016.69,11111222 
TABS,ioos:station:wmo:42046:1,2010-02-06T08:00:00Z,27.8903,-94.0367,1016.58,11111222 
TABS,ioos:station:wmo:42046:1,2010-02-06T08:30:00Z,27.8903,-94.0367,1016.43,11111222 
TABS,ioos:station:wmo:42046:1,2010-02-06T09:00:00Z,27.8903,-94.0367,1016.54,11111222 
TABS,ioos:station:wmo:42046:1,2010-02-06T09:30:00Z,27.8903,-94.0367,1016.52,11111222 
TABS,ioos:station:wmo:42046:1,2010-02-18T12:00:00Z,27.8903,-94.0367,1023.6,11111222 
TABS,ioos:station:wmo:42046:1,2010-02-18T12:30:00Z,27.8903,-94.0367,1023.7,11111222 
TABS,ioos:station:wmo:42046:1,2010-02-18T13:00:00Z,27.8903,-94.0367,1023.9,11111222 
TABS,ioos:station:wmo:42046:1,2010-02-18T13:30:00Z,27.8903,-94.0367,1024.7,11111222 
TABS,ioos:station:wmo:42046:1,2010-02-18T14:00:00Z,27.8903,-94.0367,1024.8,11111222 
TABS,ioos:station:wmo:42046:1,2010-02-18T14:30:00Z,27.8903,-94.0367,1024.8,11111222 
TABS,ioos:station:wmo:42046:1,2010-02-18T15:00:00Z,27.8903,-94.0367,1024.9,11111222 
TABS,ioos:station:wmo:42046:1,2010-02-18T15:30:00Z,27.8903,-94.0367,1025.3,11111222 
TABS,ioos:station:wmo:42046:1,2010-02-18T16:00:00Z,27.8903,-94.0367,1024.94,11111222 
TABS,ioos:station:wmo:42046:1,2010-02-18T16:30:00Z,27.8903,-94.0367,1025.0,11111222 
TABS,ioos:station:wmo:42046:1,2010-02-18T17:00:00Z,27.8903,-94.0367,1025.0,11111222 
TABS,ioos:station:wmo:42046:1,2010-02-18T17:30:00Z,27.8903,-94.0367,1024.49,11111222 
TABS,ioos:station:wmo:42046:1,2010-02-18T18:00:00Z,27.8903,-94.0367,1024.03,11111222 
TABS,ioos:station:wmo:42046:1,2010-02-18T18:30:00Z,27.8903,-94.0367,1023.48,11111222 
TABS,ioos:station:wmo:42046:1,2010-02-18T19:00:00Z,27.8903,-94.0367,1022.71,11111222 
TABS,ioos:station:wmo:42046:1,2010-02-18T19:30:00Z,27.8903,-94.0367,1022.4,11111222 
TABS,ioos:station:wmo:42046:1,2010-02-18T20:00:00Z,27.8903,-94.0367,1022.02,11111222 
TABS,ioos:station:wmo:42046:1,2010-02-18T20:30:00Z,27.8903,-94.0367,1021.85,11111222 